#timestamp,LO_Frequency,Hit,StdDev 
1680271215.8,286046999.3,N
1680271235.6,286046998.6,N
1680271255.4,286046999.0,N
1680271275.3,286046998.8,N
1680271295.1,286046998.8,N
1680271315.9,286046999.4,N
1680271335.7,286046998.9,N
1680271355.5,286046999.2,N
1680271375.4,286046998.9,N
1680271395.2,286046999.0,N
1680271415.0,286046998.4,N
1680271415.9,286046998.4,N
1680271435.8,286046998.5,N
1680271455.6,286046998.5,N
1680271475.5,286047001.2,N
1680271495.3,286047001.0,N
1680271545.2,286047000.3,E
1680271555.1,286047000.8,N
1680271556.0,286047000.8,P
1680271575.8,286047011.9,P
1680271595.7,286047000.8,N
1680271615.5,286047002.3,N
1680271635.3,286047000.6,N
1680271655.2,286047000.5,N
1680271675.0,286047000.8,N
1680271675.9,286047000.8,N
1680271695.8,286047000.9,N
1680271715.6,286047000.6,N
1680271735.4,286047000.9,N
1680271755.3,286047001.0,N
1680271775.1,286047000.1,N
1680271795.9,286047002.0,N
1680271815.7,286047004.0,N
1680271835.5,286047002.2,N
1680271855.4,286046999.7,N
1680271875.2,286046999.8,N
1680271895.0,286046999.7,N
1680271895.9,286046999.7,N
1680271915.8,286047000.1,N
1680271935.6,286047002.1,N
1680271955.5,286047002.3,N
1680271975.3,286047000.0,N
1680271995.1,286047002.1,N
1680272015.9,286047002.2,N
1680272035.7,286047002.1,N
1680272055.5,286047001.7,N
1680272075.4,286047001.7,N
1680272095.2,286047001.3,N
1680272115.1,286047001.4,N
1680272116.0,286047001.4,N
1680272135.8,286047001.8,N
1680272155.6,286047001.5,N
1680272175.5,286047004.1,Y
1680272195.3,286047002.3,P
1680272215.1,286047002.7,P
1680272235.9,286047002.3,P
1680272255.7,286047001.8,Y
1680272275.6,286047001.0,P
1680272295.4,286047000.9,N
1680272315.2,286047000.0,N
1680272335.1,286047000.3,N
1680272336.0,286047000.3,N
1680272355.8,286047001.0,N
1680272375.6,286046998.6,N
1680272395.5,286046998.8,N
1680272415.3,286046999.0,N
1680272435.2,286046999.4,N
1680272455.9,286046998.8,N
1680272475.7,286046998.7,N
1680272495.6,286046999.4,N
1680272515.4,286046999.4,N
1680272535.2,286046998.8,N
1680272555.1,286046998.3,N
1680272556.0,286046998.3,N
1680272575.8,286046998.7,N
1680272595.7,286046999.2,N
1680272615.5,286046999.4,N
1680272635.3,286046998.3,N
1680272655.2,286046998.5,N
1680272675.0,286046998.4,N
1680272675.9,286046998.4,N
1680272695.7,286046999.1,N
1680272715.6,286046998.8,N
1680272735.4,286046998.1,N
1680272755.3,286047000.7,N
1680272775.1,286046999.4,N
1680272776.0,286046999.4,N
1680272795.8,286046999.1,N
1680272815.7,286046999.0,N
1680272835.5,286046998.5,N
1680272855.3,286047000.3,N
1680272875.2,286047000.4,N
1680272895.0,286047000.6,N
1680272895.9,286047000.6,N
1680272915.8,286046998.7,N
1680272935.6,286046998.1,N
1680272955.4,286047000.6,N
1680272975.3,286046998.3,N
1680272995.1,286047000.9,N
1680273015.8,286047000.2,N
1680273035.7,286047000.3,N
1680273055.5,286047000.3,N
1680273075.4,286047008.2,Y
1680273095.2,286047009.6,P
1680273115.0,286047009.1,N
1680273115.9,286047009.1,N
1680273135.8,286047015.1,Y
1680273155.6,286047007.2,P
1680273175.5,286047003.8,P
1680273195.3,286046999.4,N
1680273215.1,286046999.2,N
1680273235.9,286046997.9,N
1680273255.7,286046997.9,N
1680273275.5,286046997.2,N
1680273295.4,286046996.6,N
1680273315.2,286046997.7,N
1680273335.1,286046997.1,N
1680273336.0,286046997.1,N
1680273355.8,286046997.7,N
1680273375.6,286046997.5,N
1680273395.5,286046997.8,N
1680273415.3,286046997.8,N
1680273435.2,286046999.5,N
1680273455.9,286046997.7,N
1680273475.7,286046997.6,N
1680273495.6,286046997.6,N
1680273515.4,286046997.9,N
1680273535.2,286046994.9,N
1680273555.1,286046994.9,N
1680273556.0,286046994.9,N
1680273575.8,286046995.3,N
1680273595.7,286046995.7,N
1680273615.5,286046997.2,N
1680273635.3,286046997.9,N
1680273655.2,286046995.9,N
1680273675.0,286046993.5,N
1680273675.9,286046993.5,N
1680273695.8,286046994.0,N
1680273715.6,286046996.1,N
1680273765.5,286046995.5,E
1680273775.4,286046998.9,N
1680273795.2,286047000.4,P
1680273815.1,286047011.9,P
1680273816.0,286047000.1,N
1680273835.8,286047001.2,N
1680273855.7,286046998.2,N
1680273875.5,286047000.9,N
1680273895.3,286047000.6,N
1680273915.2,286047000.0,N
1680273935.0,286047000.7,N
1680273935.9,286047000.7,N
1680273955.8,286047001.1,N
1680273975.6,286046998.5,N
1680273995.4,286046998.2,N
1680274015.3,286046998.2,N
1680274035.1,286046998.1,N
1680274055.8,286047000.7,N
1680274075.7,286047001.1,N
1680274095.5,286046998.2,N
1680274115.4,286046998.7,N
1680274135.2,286046998.8,N
1680274155.0,286046998.6,N
1680274155.9,286046998.6,N
1680274175.8,286047011.9,Y
1680274195.6,286046998.4,P
1680274215.5,286046998.9,N
1680274235.3,286046998.1,N
1680274255.1,286046998.1,N
1680274275.9,286047000.8,N
1680274295.7,286047000.6,N
1680274315.5,286047000.9,N
1680274335.4,286047000.6,N
1680274355.2,286047000.2,N
1680274375.1,286047001.0,N
1680274376.0,286047001.0,N
1680274395.8,286047000.6,N
1680274415.6,286047000.8,N
1680274435.5,286046998.5,N
1680274455.3,286047000.6,N
1680274475.2,286047001.0,N
1680274495.9,286047001.1,N
1680274515.7,286047000.3,N
1680274535.6,286047000.7,N
1680274555.4,286047000.5,N
1680274575.3,286046999.8,N
1680274595.1,286046999.9,N
1680274596.0,286046999.9,N
1680274615.8,286047000.5,N
1680274635.7,286047001.1,N
1680274655.5,286047001.2,N
1680274705.4,286046998.6,E
1680274715.3,286046998.7,N
1680274735.1,286047000.4,P
1680274755.9,286047002.8,P
1680274775.7,286047002.4,N
1680274795.6,286046999.7,N
